CDT,Max TemperatureF,Mean TemperatureF,Min TemperatureF,Max Dew PointF,MeanDew PointF,Min DewpointF,Max Humidity, Mean Humidity, Min Humidity, Max Sea Level PressureIn, Mean Sea Level PressureIn, Min Sea Level PressureIn, Max VisibilityMiles, Mean VisibilityMiles, Min VisibilityMiles, Max Wind SpeedMPH, Mean Wind SpeedMPH, Max Gust SpeedMPH,PrecipitationIn, CloudCover, Events, WindDirDegrees
2013-10-1,80,72,64,73,68,64,100,97,79,30.09,30.03,29.97,10,10,6,12,6,,0.01,5,,161
2013-10-2,82,75,68,72,70,66,100,94,61,30.12,30.07,30.04,10,10,6,9,4,,0.00,3,,156
2013-10-3,84,74,64,73,69,64,100,94,62,30.08,30.03,29.97,10,9,7,10,5,,0.00,1,,158
2013-10-4,82,74,66,75,71,66,100,97,74,30.08,30.03,30.00,10,8,3,12,6,,0.00,2,,159
2013-10-5,86,78,69,75,73,70,100,93,62,30.04,29.98,29.88,10,9,6,16,5,17,0.01,6,,178
2013-10-6,71,62,51,72,55,46,100,86,46,30.00,29.95,29.89,10,8,2,14,9,21,0.80,6,,320
2013-10-7,66,56,46,54,49,46,100,87,52,30.12,30.04,29.98,10,10,9,13,3,,0.00,0,,8
2013-10-8,71,58,46,57,51,46,100,87,43,30.16,30.11,30.07,10,10,9,12,4,,0.00,1,,40
2013-10-9,73,62,51,66,58,52,100,96,78,30.16,30.10,30.07,10,9,3,9,3,,0.00,3,,103
2013-10-10,78,68,57,66,62,57,100,87,54,30.17,30.09,30.03,10,6,0,6,0,,0.00,3,,160
2013-10-11,80,68,55,66,60,55,100,90,48,30.08,30.02,29.98,10,9,5,9,1,,0.00,2,,201
2013-10-12,75,66,57,72,63,57,100,98,83,30.14,30.06,30.00,10,8,2,12,1,25,0.00,3,Rain,159
2013-10-13,77,68,57,68,62,57,100,86,65,30.28,30.20,30.14,10,6,0,12,4,,0.00,5,,22
2013-10-14,80,68,55,66,60,55,100,90,51,30.23,30.17,30.07,10,10,7,7,4,,0.00,2,,45
2013-10-15,71,68,66,68,66,66,100,98,83,30.07,30.02,29.97,10,9,2,14,5,,0.07,7,Rain,164
2013-10-16,66,60,55,66,59,55,100,100,94,30.03,29.98,29.96,10,7,2,14,5,,0.54,8,Rain,342
2013-10-17,64,56,48,57,54,48,100,95,59,30.05,30.00,29.97,10,9,2,12,4,,0.00,6,,324
2013-10-18,68,56,44,57,49,45,100,91,46,30.09,30.03,29.96,10,9,5,9,0,,0.00,6,,154
2013-10-19,55,48,41,55,49,41,100,96,67,30.09,30.01,29.94,10,8,3,14,2,20,0.00,5,,306
2013-10-20,64,50,35,48,41,36,100,89,42,30.13,30.06,30.01,10,8,3,7,1,,0.00,4,,182
2013-10-21,71,56,42,55,47,43,100,87,41,30.09,30.04,29.99,10,10,9,13,2,16,0.00,6,,258
2013-10-22,64,57,50,54,46,41,100,74,42,30.08,29.99,29.92,10,10,9,12,5,,0.00,4,,265
2013-10-23,57,49,41,48,42,36,100,82,44,30.17,30.07,29.96,10,10,5,16,7,22,0.00,5,,323
2013-10-24,62,50,39,45,41,36,100,85,51,30.38,30.21,30.12,10,9,4,14,1,,0.00,5,,360
2013-10-25,44,38,32,36,34,32,100,91,61,30.53,30.42,30.34,10,10,7,16,4,,0.00,1,,30
2013-10-26,62,48,33,52,40,34,100,86,45,30.33,30.23,30.11,10,9,2,14,3,,0.00,5,,201
2013-10-27,66,57,48,59,55,48,100,97,68,30.11,30.08,30.04,10,8,2,12,5,,0.00,6,,209
2013-10-28,66,60,53,61,57,54,100,96,68,30.24,30.16,30.08,10,6,1,8,4,,0.00,8,,164
2013-10-29,71,62,53,70,61,54,100,98,88,30.25,30.20,30.13,10,8,0,12,4,,0.00,4,Fog,162
2013-10-30,73,66,59,70,64,59,100,97,78,30.20,30.11,29.98,10,10,7,15,8,20,0.00,4,,174
2013-10-31,68,64,59,68,63,52,100,94,64,29.97,29.83,29.61,10,7,2,20,12,26,0.53,5,Rain,192